User: anonymous
Location: Norwich
(52.6280°N, 1.3030°E)
Time: 19:26:37
(UTC+01:00)
Language:

APEX - Orbit

View from above orbital plane
View from above orbital plane
View from above satellite
View from above satellite

Ground track
Ground track

The orbit data is extracted from the following two-line orbital elements,

1 23191U 94046A   14109.76927663  .00035710  00000-0  14731-2 0  8803
2 23191 069.9226 312.8704 0753908 014.6837 054.5646 14.01464227952342
Epoch (UTC): 19 April 2014 18:27:45
Eccentricity: 0.0753908
inclination: 69.9226°
perigee height: 341 km
apogee height: 1436 km
right ascension of ascending node: 312.8704°
argument of perigee: 14.6837°
revolutions per day: 14.01464227
mean anomaly at epoch: 54.5646°
orbit number at epoch: 95234

The dashed part of the orbit path shows where the satellite is in the earth's shadow,  

DLR